GW4545 Weather Reports


time (UTC)temp
F
wind
direction
speed
knots
gust
knots
rain 1hr
in
rain 24hr
in
rain mn
in
humidity
%
barometer
mb
20260509000041 65 0 1.7 4.3 0.00 0.00 0.00 58 1022.7
20260508234548 65 5 1.7 4.3 0.00 0.00 0.00 61 1022.7
20260508233059 65 0 0.0 3.5 0.00 0.00 0.00 56 1022.7
20260508231546 66 0 0.9 6.1 0.00 0.00 0.00 58 1022.7
20260508230052 66 48 2.6 5.2 0.00 0.00 0.00 54 1022.6
20260508224600 67 318 2.6 7.0 0.00 0.00 0.00 54 1022.6
20260508223048 67 0 1.7 5.2 0.00 0.00 0.00 51 1022.5
20260508221551 66 348 2.6 5.2 0.00 0.00 0.00 54 1022.6
20260508220043 65 22 1.7 7.0 0.00 0.00 0.00 56 1022.6
20260508214541 65 16 2.6 5.2 0.00 0.00 0.00 55 1022.6
20260508213049 65 186 1.7 5.2 0.00 0.00 0.00 55 1022.7
20260508211543 64 0 0.9 4.3 0.00 0.00 0.00 57 1022.8
20260508210043 62 0 0.9 4.3 0.00 0.00 0.00 58 1022.8
20260508204550 62 38 1.7 5.2 0.00 0.00 0.00 59 1022.8
20260508203054 61 59 1.7 6.1 0.00 0.00 0.00 62 1022.8
20260508201544 61 329 0.9 7.8 0.00 0.00 0.00 59 1022.8
20260508200049 61 341 1.7 7.8 0.00 0.00 0.00 62 1023.1
20260508194552 60 254 3.5 7.8 0.00 0.00 0.00 60 1023.0
20260508193048 59 323 1.7 7.8 0.00 0.00 0.00 63 1023.0
20260508191552 59 340 1.7 7.8 0.00 0.00 0.00 64 1023.0
20260508190044 57 346 2.6 6.1 0.00 0.00 0.00 64 1022.9
20260508184547 57 5 1.7 9.6 0.00 0.00 0.00 64 1022.9
20260508183041 57 315 5.2 10.4 0.00 0.00 0.00 64 1023.0
20260508181548 57 17 3.5 8.7 0.00 0.00 0.00 65 1023.0
20260508180048 57 46 2.6 7.8 0.00 0.00 0.00 67 1022.9
20260508174558 56 352 1.7 5.2 0.00 0.00 0.00 71 1022.8
20260508173040 56 338 1.7 3.5 0.00 0.00 0.00 68 1022.7
20260508171541 56 134 1.7 4.3 0.00 0.00 0.00 69 1022.4
20260508170049 55 343 2.6 5.2 0.00 0.00 0.00 71 1022.3
20260508164549 54 0 0.9 2.6 0.00 0.00 0.00 71 1022.4
20260508163048 54 130 0.9 3.5 0.00 0.00 0.00 75 1022.2
20260508161546 53 319 0.9 3.5 0.00 0.00 0.00 75 1022.2
20260508160049 52 0 0.0 1.7 0.00 0.00 0.00 77 1022.0
20260508154548 52 0 0.0 1.7 0.00 0.00 0.00 78 1022.0
20260508153043 52 0 0.0 1.7 0.00 0.00 0.00 79 1022.0
20260508151545 51 80 0.9 2.6 0.00 0.00 0.00 84 1021.6
20260508150048 49 0 0.0 1.7 0.00 0.00 0.00 86 1021.4
20260508144550 48 194 0.0 0.9 0.00 0.00 0.00 87 1021.3
20260508143051 47 200 0.0 2.6 0.00 0.00 0.00 87 1021.3
20260508141543 47 0 0.0 0.0 0.00 0.00 0.00 87 1021.2
20260508140047 47 0 0.0 0.9 0.00 0.00 0.00 89 1021.2
20260508134547 46 176 0.9 2.6 0.00 0.00 0.00 87 1021.0
20260508133055 46 176 0.9 2.6 0.00 0.00 0.00 85 1020.6
20260508131550 47 135 0.9 3.5 0.00 0.00 0.00 83 1020.3
20260508124551 48 352 0.9 4.3 0.00 0.00 0.00 80 1020.0
20260508123056 48 348 1.7 7.0 0.00 0.00 0.00 78 1019.7
20260508121548 48 280 3.5 7.8 0.00 0.00 0.00 78 1019.5
20260508120049 48 11 1.7 7.0 0.00 0.00 0.00 81 1019.6
20260508114551 46 331 1.7 8.7 0.00 0.00 0.00 88 1019.5
20260508113044 46 261 0.0 0.9 0.00 0.00 0.00 92 1019.4
20260508111548 46 0 0.9 2.6 0.00 0.00 0.00 92 1019.4
20260508110050 46 0 0.0 1.7 0.00 0.00 0.00 92 1018.9
20260508104552 46 261 0.9 1.7 0.00 0.00 0.00 92 1018.8
20260508103050 46 0 0.0 0.9 0.00 0.00 0.00 92 1018.6
20260508101547 46 0 0.0 0.9 0.00 0.00 0.00 91 1018.5
20260508100043 46 0 0.9 1.7 0.00 0.00 0.00 90 1018.4
20260508094547 47 261 0.9 2.6 0.00 0.00 0.00 91 1018.3
20260508093054 46 261 0.9 1.7 0.00 0.00 0.00 92 1018.2
20260508091557 46 261 0.9 2.6 0.00 0.00 0.00 92 1018.1
20260508090059 46 0 0.0 1.7 0.00 0.00 0.00 90 1018.0
20260508084547 47 0 0.0 1.7 0.00 0.00 0.00 89 1017.9
20260508083044 48 0 0.0 1.7 0.00 0.00 0.00 89 1017.9
20260508081555 48 244 1.7 2.6 0.00 0.00 0.00 88 1017.8
20260508080052 48 244 0.9 2.6 0.00 0.00 0.00 87 1017.8
20260508074549 49 0 0.0 1.7 0.00 0.00 0.00 86 1017.8
20260508073054 50 247 0.9 1.7 0.00 0.00 0.00 83 1017.8
20260508071555 51 263 0.9 2.6 0.00 0.00 0.00 82 1017.8
20260508070056 50 236 0.9 2.6 0.00 0.00 0.00 84 1017.7
20260508064544 50 236 0.9 2.6 0.00 0.00 0.00 85 1017.7
20260508063043 51 236 1.7 2.6 0.00 0.00 0.00 83 1017.7
20260508061548 51 242 0.9 3.5 0.00 0.00 0.00 82 1017.7
20260508060048 52 222 0.9 2.6 0.00 0.00 0.00 82 1017.9
20260508054550 53 273 0.9 1.7 0.00 0.00 0.00 79 1017.9
20260508053051 54 0 0.0 1.7 0.00 0.00 0.00 78 1018.1
20260508051545 55 294 0.0 3.5 0.00 0.00 0.00 76 1018.0
20260508050043 56 271 2.6 6.1 0.00 0.00 0.00 75 1017.8
20260508044548 56 102 1.7 3.5 0.00 0.00 0.00 76 1017.8
20260508043048 56 146 0.9 4.3 0.00 0.00 0.00 76 1017.8
20260508041547 56 225 1.7 4.3 0.00 0.00 0.00 78 1017.9
20260508040045 58 269 0.9 2.6 0.00 0.00 0.00 76 1017.6
20260508034543 60 300 0.0 3.5 0.00 0.00 0.00 71 1017.5
20260508033106 60 262 0.9 2.6 0.00 0.00 0.00 72 1017.4
20260508031547 61 265 0.9 3.5 0.00 0.00 0.00 73 1017.3
20260508030100 62 251 1.7 3.5 0.00 0.00 0.00 72 1017.3
20260508024550 65 246 0.9 2.6 0.00 0.00 0.00 69 1017.0
20260508023042 67 269 0.9 2.6 0.00 0.00 0.00 66 1017.1
20260508021547 69 161 0.0 1.7 0.00 0.00 0.00 59 1017.0
20260508020104 69 161 0.9 2.6 0.00 0.00 0.00 57 1017.0
20260508014554 70 90 1.7 3.5 0.00 0.00 0.00 55 1017.1
20260508013056 70 103 0.0 2.6 0.00 0.00 0.00 56 1017.3
20260508011545 70 63 0.0 1.7 0.00 0.00 0.00 53 1017.4
20260508010041 70 0 0.9 3.5 0.00 0.00 0.00 56 1017.6
20260508004542 69 63 0.9 3.5 0.00 0.00 0.00 57 1017.6
20260508003045 69 87 0.9 5.2 0.00 0.00 0.00 60 1017.7
20260508001552 69 0 1.7 5.2 0.00 0.00 0.00 56 1017.8